Regional Weather Roundup
Issued by NWS

Home | Current Version | Previous Version | Text Only | Print | Product List | Glossary Off
Versions: 1 2 3 4 5 6 7 8 9 10 11 12 13 14 15 16 17 18 19 20 21 22 23 24 25 26 27 28 29 30 31 32 33 34 35 36 37 38 39 40 41 42 43 44 45 46 47 48 49 50

000
ASUS43 KFSD 292002
RWRSD

WEATHER ROUNDUP FOR SOUTH DAKOTA
NATIONAL WEATHER SERVICE SIOUX FALLS SD
300 PM CDT WED JUL 29 2015

NOTE: "FAIR" INDICATES FEW OR NO CLOUDS BELOW 12,000 FEET WITH NO
SIGNIFICANT WEATHER AND/OR OBSTRUCTIONS TO VISIBILITY.


SDZ001>005-009-010-012>017-292100-
NORTHWEST AND NORTH CENTRAL SOUTH DAKOTA

CITY           SKY/WX    TMP DP  RH WIND       PRES   REMARKS
BUFFALO          N/A     82  37  20 W26G36    30.12S
FAITH            N/A     83  33  16 W20G28    30.15F
MOBRIDGE       MOSUNNY   84  47  27 NW24G33   30.06F
$$

SDZ012>016-024>037-041>051-057-063-072>074-292100-
SOUTHWEST AND SOUTH CENTRAL SOUTH DAKOTA

CITY           SKY/WX    TMP DP  RH WIND       PRES   REMARKS
RAPID CTY ARPT SUNNY     80  41  24 CALM      30.21F
PIERRE         SUNNY     88  40  18 W23G29    30.10F
CUSTER         SUNNY     71  35  26 W14       30.35F
ELLSWORTH AFB  SUNNY     80  41  25 VRB3      30.21F
PHILIP         SUNNY     85  43  22 NW16G22   30.16F
PINE RIDGE     SUNNY     81  44  27 VRB5G16   30.24F
WINNER         FAIR      88  43  20 NW18      30.17S
$$

SDZ004>011-016>023-039-040-292100-
NORTHEAST SOUTH DAKOTA

CITY           SKY/WX    TMP DP  RH WIND       PRES   REMARKS
ABERDEEN       SUNNY     84  48  28 W23G35    30.03S
WATERTOWN      SUNNY     80  51  36 W24G32    30.05S
BROOKINGS      SUNNY     81  52  36 W24G33    30.09S
SISSETON         N/A     81  54  39 NW29G37   29.96R
$$

SDZ017-020-022-023-036>040-048>070-292100-
SOUTHEAST SOUTH DAKOTA

CITY           SKY/WX    TMP DP  RH WIND       PRES   REMARKS
SIOUX FALLS    MOSUNNY   81  54  39 W16G25    30.10F
HURON          SUNNY     84  49  29 W24       30.07S
CHAMBERLAIN    SUNNY     84  46  25 W20G25    30.14S
MITCHELL       MOSUNNY   86  50  28 W12G25    30.10F
YANKTON        SUNNY     82  50  32 W15       30.12S
$$

ABBREVIATIONS USED IN REMARKS
   TC - TEMPERATURE IN CELSIUS
  WCI - WIND CHILL INDEX
   HX - HEAT INDEX
  VSB - VISIBILITY



USA.gov is the U.S. government's official web portal to all federal, state and local government web resources and services.